Theta_e
322 320 321 322 323 324 324 326 326 327 328 324 324 324 323 322 321 321 320 318 316 314 312 309 308 307 306 304 303 303 303 302 302 302 302 301 301 302 302 301 300 299 298 297
322 323 322 322 322 323 324 324 325 326 326 323 323 323 323 323 322 321 321 319 317 315 312 309 307 307 306 305 303 302 302 301 302 301 301 300 300 301 302 300 301 300 299 298
323 323 322 321 321 323 323 323 323 324 325 321 321 321 322 323 322 321 320 320 318 316 312 309 308 307 306 304 303 303 302 301 300 301 300 300 301 301 301 299 300 298 299 299
324 324 322 323 323 321 322 321 322 322 324 326 321 320 321 323 322 322 320 320 319 317 312 309 308 307 306 305 303 303 302 301 300 299 299 299 299 299 298 298 298 297 299 298
324 321 320 321 324 322 322 321 319 320 322 322 322 322 321 321 323 322 321 320 319 317 313 310 308 307 306 305 303 302 301 300 299 299 299 298 298 297 297 297 297 298 297 298
323 322 319 321 321 322 321 321 319 319 320 321 321 322 322 322 322 322 321 320 319 317 314 311 309 307 306 304 303 302 301 300 299 299 299 298 298 297 297 297 297 296 296 297
322 322 321 319 319 320 321 320 320 322 321 321 320 321 322 322 322 323 321 319 318 317 314 312 309 307 305 304 303 302 301 300 299 298 298 298 297 296 296 296 296 295 296 295
322 325 322 320 319 319 321 320 323 323 325 324 323 322 321 321 319 320 320 319 318 316 314 312 310 308 305 304 304 302 301 300 299 298 297 297 296 295 295 295 294 295 295 294
320 319 319 321 320 318 318 320 319 321 322 323 322 322 321 318 317 316 316 319 317 316 314 312 310 308 306 305 303 301 300 299 299 298 297 296 295 294 294 294 294 294 294 293
321 321 319 320 320 318 317 318 321 320 322 323 322 322 323 320 317 316 316 318 317 315 314 312 311 308 306 304 303 301 300 299 298 297 296 295 294 294 293 293 294 293 292 292
319 319 319 314 316 318 317 316 318 319 320 321 322 321 319 319 319 316 316 316 316 315 314 312 311 309 306 304 302 301 299 298 298 296 295 294 294 293 293 293 292 292 291 291
316 317 322 319 315 316 316 318 317 318 318 319 321 320 319 318 318 316 315 315 315 315 314 312 310 308 305 303 301 300 299 298 297 295 295 294 293 292 292 292 291 291 291 290
314 316 322 320 319 318 313 313 314 316 317 318 320 319 318 318 316 316 316 315 315 314 313 311 309 307 305 303 301 300 298 297 295 294 293 293 292 292 291 291 291 290 290 289
312 312 316 320 319 317 317 315 316 317 316 316 317 317 316 317 316 316 314 314 314 314 312 310 309 306 304 302 300 299 297 296 294 293 292 292 291 291 291 290 290 289 289 289
311 314 314 315 315 314 314 314 315 317 318 317 316 316 316 316 316 314 313 313 314 313 312 310 309 306 303 301 300 297 296 294 293 292 291 291 291 290 290 289 289 289 288 288
312 313 312 314 313 312 312 313 313 314 316 316 318 318 315 313 313 314 314 314 314 314 312 310 308 305 301 301 299 297 295 293 292 291 291 290 290 289 289 288 288 288 287 287
310 311 314 315 311 312 314 313 314 314 315 316 317 317 316 316 315 314 315 314 313 313 312 310 308 302 300 299 297 296 294 292 291 290 290 289 289 288 288 288 287 287 287 286
311 311 312 314 313 315 312 311 312 313 313 315 315 315 316 316 315 315 315 314 313 312 311 310 307 302 300 299 297 295 292 291 290 290 289 288 288 287 287 287 286 286 286 286
307 309 312 313 314 311 310 310 311 313 314 314 313 312 313 313 313 312 310 309 311 311 311 308 305 301 298 296 295 293 291 290 289 288 288 287 287 286 286 286 285 285 285 285
310 309 310 310 311 310 309 309 310 312 311 312 311 313 313 313 312 312 308 309 310 310 308 305 301 298 296 294 292 291 290 289 288 287 287 286 285 285 285 284 284 284 284 284
309 310 311 311 311 309 308 309 310 311 310 311 312 312 313 314 312 310 308 309 308 306 303 300 298 296 294 292 291 290 289 288 287 286 285 285 284 284 283 283 284 283 283 283
308 310 310 310 309 309 309 308 309 311 311 312 311 311 310 308 307 307 307 304 302 300 298 296 295 293 291 290 290 289 288 286 286 285 284 284 283 283 283 283 283 282 282 281
307 308 309 309 309 310 308 309 311 311 311 310 310 310 308 306 306 305 302 300 298 296 295 294 293 291 289 289 289 288 286 285 284 284 283 283 282 282 282 282 281 281 280 279
306 307 309 309 309 309 309 310 310 308 309 309 309 308 305 304 303 301 299 298 296 295 294 292 291 289 288 288 288 286 285 284 284 282 281 281 281 281 281 281 280 280 279 278
307 307 308 308 307 307 306 306 310 309 307 307 308 306 304 302 300 298 297 296 295 294 292 291 289 288 286 286 285 284 283 283 283 281 281 281 281 280 280 280 280 279 278 277
304 307 308 307 306 306 305 308 308 307 306 306 305 304 302 300 298 297 296 295 294 292 291 290 289 287 286 284 283 283 282 282 282 281 281 281 280 280 280 279 279 279 278 277
Wind_Speed
15 8 11 14 15 19 19 21 18 16 20 19 15 17 20 26 26 24 27 26 25 22 20 19 17 14 11 10 10 9 7 5 3 2 1 2 4 5 7 11 14 17 19 17
14 16 14 15 17 17 18 19 20 19 19 10 14 17 18 23 24 28 29 29 29 26 25 21 18 16 12 13 11 9 8 6 6 1 1 4 6 7 9 12 11 16 18 20
17 17 6 4 13 17 17 17 18 19 20 14 9 17 18 21 28 28 28 29 30 30 29 24 20 18 16 14 13 10 9 7 5 5 1 4 4 3 6 9 10 16 15 16
21 22 21 20 17 16 17 16 17 18 17 14 14 12 17 19 23 20 26 29 31 32 31 27 23 19 16 15 14 12 9 5 5 3 2 3 3 4 8 10 12 13 13 14
22 20 22 23 22 18 19 15 10 16 14 17 21 13 12 15 20 21 21 28 29 31 31 28 25 21 18 16 14 13 11 7 5 2 1 2 4 6 7 10 12 10 13 11
28 31 23 19 18 19 14 14 11 15 12 16 17 16 16 15 16 22 22 27 28 30 31 29 26 23 20 17 16 13 9 8 5 2 1 3 6 7 8 10 10 12 11 12
26 29 25 18 15 15 16 11 6 9 10 13 14 15 16 10 8 21 21 28 31 29 32 31 29 27 24 19 15 14 11 8 5 3 2 4 6 7 8 9 10 12 10 12
17 20 26 23 23 18 21 16 9 9 12 14 17 19 17 5 12 12 20 34 34 32 33 31 30 29 24 19 17 13 13 10 5 3 2 4 6 6 5 9 9 8 10 10
12 24 20 26 26 21 22 19 17 16 18 11 11 16 4 6 9 6 7 27 33 33 32 32 30 30 25 23 19 16 13 10 7 3 2 3 5 7 7 8 7 8 9 10
17 20 18 17 14 23 21 15 14 11 13 18 16 15 11 10 14 10 7 19 28 31 31 33 31 30 28 24 20 17 13 11 9 6 4 4 6 7 7 6 7 8 11 11
13 13 7 4 10 17 12 16 16 10 12 9 9 8 6 11 7 10 9 14 23 27 31 31 30 30 29 23 21 18 15 12 10 7 5 5 6 6 5 5 8 10 11 11
11 7 13 22 10 10 13 12 15 5 12 7 9 17 3 7 4 14 16 19 24 27 29 30 31 34 27 26 20 19 16 12 9 7 4 4 5 5 5 6 7 11 10 11
8 4 4 12 17 17 7 12 8 6 4 14 12 18 2 5 3 8 13 18 22 27 29 30 31 33 29 26 22 21 16 14 9 6 4 4 4 4 5 7 8 8 10 10
4 4 5 8 10 9 5 17 20 15 7 17 17 23 21 16 7 8 12 15 17 24 27 30 31 31 30 28 26 19 19 15 9 5 3 4 4 4 5 7 9 8 10 10
9 5 10 19 27 27 22 18 17 21 20 20 20 22 25 10 8 13 13 10 18 24 29 33 32 33 34 31 26 17 14 10 7 5 3 4 4 3 5 6 8 8 9 9
6 9 12 11 17 23 25 21 20 24 23 22 23 26 19 17 23 13 12 19 25 27 29 32 31 29 28 28 23 15 13 11 7 6 4 4 2 1 4 5 6 7 8 9
7 4 3 6 18 18 12 18 21 22 23 19 20 21 21 20 17 18 22 26 34 29 34 35 33 26 23 21 19 19 15 11 8 6 4 3 1 1 3 4 5 7 8 9
11 8 4 10 13 12 6 14 19 21 21 18 18 20 23 22 26 16 16 19 24 20 32 33 31 26 24 24 21 18 14 11 10 8 6 3 1 1 3 3 5 7 8 9
10 4 3 3 5 9 18 14 12 13 15 15 11 16 18 20 9 6 8 6 11 19 28 32 31 29 27 23 21 17 13 10 9 7 5 2 1 1 2 3 5 6 8 9
19 17 10 7 7 8 14 17 16 10 7 11 18 15 13 6 7 4 12 16 12 23 33 35 32 27 24 21 18 15 14 12 9 7 5 2 1 0 2 3 4 6 7 8
10 5 15 14 9 8 17 19 19 17 13 11 13 18 13 8 7 12 19 21 25 31 34 33 29 26 22 19 18 16 14 13 10 5 4 3 2 1 2 2 4 6 6 7
12 8 9 6 7 10 12 15 16 12 17 10 9 10 13 17 20 24 26 31 34 33 32 30 28 24 21 19 18 15 14 11 8 7 5 4 2 2 1 2 3 4 6 6
15 10 8 10 7 9 16 15 14 12 3 3 2 10 19 23 24 27 31 31 30 29 27 25 25 23 19 17 15 15 12 10 9 9 8 5 4 2 2 2 4 5 7 8
16 16 9 8 14 21 22 18 7 5 11 6 3 13 19 24 28 28 27 27 28 27 26 25 24 21 19 17 15 14 13 10 10 8 7 5 4 1 3 4 5 6 9 11
13 12 10 9 9 13 19 40 10 13 5 4 6 12 19 26 26 28 28 27 27 26 25 24 22 21 17 17 16 13 11 10 7 6 4 2 1 3 4 5 7 8 12 14
14 11 6 6 15 12 17 19 5 5 7 7 11 16 20 25 27 26 27 27 27 26 24 23 21 19 18 15 13 11 10 13 8 3 4 3 2 1 3 2 4 8 12 16
Wind_Direction
232 235 239 248 242 247 267 285 288 291 294 191 226 217 179 184 192 194 189 190 188 184 181 174 173 165 168 163 167 174 173 160 147 137 131 340 4 352 342 342 345 332 337 338
245 243 252 264 275 267 257 264 266 272 275 200 221 232 242 180 197 200 194 193 189 183 178 177 176 176 174 173 175 173 178 171 152 166 9 18 14 13 353 337 351 324 342 344
250 266 264 260 287 264 258 263 270 270 269 199 238 257 252 185 195 206 207 198 192 186 177 181 182 183 184 180 172 174 180 175 144 120 34 37 49 26 305 344 334 338 343 342
253 263 260 263 250 261 265 258 263 260 267 259 193 258 235 221 189 197 206 201 193 186 179 182 184 187 183 185 169 173 168 166 151 146 30 21 20 346 343 330 320 345 331 346
247 250 248 255 252 242 255 283 292 293 257 271 257 263 256 264 201 189 200 204 194 185 177 180 185 188 188 192 174 180 167 173 170 155 69 346 336 334 327 325 332 336 326 328
253 250 263 247 251 243 258 258 265 265 263 254 247 256 251 245 241 183 193 199 192 182 177 182 185 188 188 190 189 174 170 176 174 193 308 325 327 331 330 330 337 319 344 323
245 246 249 247 258 263 226 222 248 222 227 251 240 237 240 262 285 186 183 187 187 184 176 178 181 183 186 192 187 174 175 184 186 205 287 328 326 336 341 325 319 336 330 329
241 249 236 232 216 230 227 214 217 212 237 250 249 239 254 108 82 123 187 185 178 178 175 179 183 184 189 187 189 175 175 183 193 207 287 314 329 330 332 310 327 340 319 325
263 262 261 225 223 208 237 219 238 267 278 281 267 282 289 113 138 161 190 168 170 173 176 180 186 185 190 185 187 182 179 184 187 207 258 297 316 322 322 326 334 311 317 325
237 266 275 298 210 196 222 251 230 220 255 250 257 259 260 202 184 171 199 160 165 172 180 182 184 183 187 183 185 185 176 182 188 196 240 272 310 315 325 333 313 321 315 344
293 225 217 324 223 208 206 233 245 250 223 245 255 254 97 35 140 166 192 177 168 177 182 179 181 180 182 179 185 187 180 181 191 212 251 294 307 314 323 316 320 313 340 326
360 301 242 234 255 243 263 248 231 215 245 259 243 254 348 96 100 173 185 179 180 184 184 180 180 177 176 179 184 184 187 190 212 226 257 287 307 319 320 317 326 326 338 334
9 335 328 261 236 235 241 254 253 258 198 241 250 258 81 12 57 155 164 179 181 180 177 176 177 178 177 179 182 185 190 197 193 222 273 294 309 313 317 318 324 337 332 340
270 218 248 285 280 321 325 325 309 294 239 251 246 259 264 269 220 166 170 181 181 175 175 175 171 177 181 181 180 186 198 205 201 220 224 272 291 306 310 319 326 344 335 344
185 226 268 266 267 277 284 281 260 264 265 258 258 251 262 266 260 166 167 200 190 195 189 180 172 177 181 180 185 192 208 206 198 200 205 242 272 318 315 324 347 336 337 338
232 239 233 246 257 272 278 266 268 264 264 259 278 284 270 260 263 234 223 239 246 231 192 180 178 178 181 192 199 187 192 197 189 204 194 217 248 310 309 338 344 331 338 335
212 268 251 240 250 264 269 262 260 260 262 256 262 259 273 273 265 239 218 227 257 203 185 177 174 166 177 179 176 185 191 202 179 191 182 194 247 332 323 333 335 336 336 342
245 241 242 268 250 239 245 257 266 271 266 254 259 265 269 272 274 258 283 269 245 193 166 166 166 166 169 171 176 184 186 190 176 180 178 167 248 327 322 345 338 344 335 347
207 224 251 229 254 295 290 275 279 304 301 279 288 292 286 276 258 252 248 156 162 164 166 160 164 162 164 165 178 184 174 178 173 178 179 173 205 318 347 334 349 339 345 345
205 216 207 225 250 253 251 253 247 150 276 253 270 275 268 240 223 162 154 156 159 163 157 154 157 158 161 167 168 173 171 173 177 181 184 174 197 299 353 355 354 340 348 329
245 253 233 220 235 261 263 260 252 274 274 283 325 314 269 240 187 151 153 146 157 156 150 149 150 153 162 166 167 172 172 178 195 181 170 171 168 67 352 345 357 338 336 337
251 250 254 232 232 255 238 273 263 269 259 297 307 319 97 115 124 134 133 128 133 136 141 146 148 153 162 165 167 167 177 191 170 169 171 183 212 141 289 50 326 344 322 323
248 229 243 243 250 236 270 270 317 340 289 328 303 108 125 127 132 132 129 131 134 138 141 147 153 155 158 163 166 170 180 173 180 187 185 202 222 165 278 70 322 336 328 333
253 257 237 221 254 280 301 281 256 336 314 272 232 139 142 137 137 134 136 140 143 149 152 155 157 154 154 159 168 184 171 180 207 205 211 225 240 216 350 45 339 338 326 333
277 297 287 287 268 275 272 293 157 171 233 249 163 161 153 146 145 146 149 150 154 156 157 162 162 159 159 160 168 178 171 181 215 193 203 182 344 24 40 3 338 342 333 340
267 238 230 274 277 219 246 262 291 166 188 202 187 163 155 150 151 154 155 159 158 158 162 164 165 159 160 161 164 163 176 178 203 177 164 229 167 61 354 350 329 334 346 345